User: anonymous   Login
Location: Unspecified
(0.0000°N, 0.0000°E)
Time: 18:59:11
(UTC+00:00)
Language:

THAICOM 8 - Orbit

View from above orbital plane
View from above orbital plane
View from above satellite
View from above satellite

Ground track
Ground track

The orbit is defined by the following mean orbital elements,

1 41552U          26145.52805177 +.00000000 +00000-0 +00000-0 0 00003
2 41552   0.0628  44.8020 0003905   0.9370 106.0103  1.00272368    09
Epoch (UTC): 25 May 2026 12:40:23
Eccentricity: 0.0003905
inclination: 0.0628°
perigee height: 35770 km
apogee height: 35803 km
right ascension of ascending node: 44.8020°
argument of perigee: 0.9370°
revolutions per day: 1.00272368
mean anomaly at epoch: 106.0103°

The dashed part of the orbit path shows where the satellite is in the earth's shadow,  

DLR